This is the latest recevied weather packets stored in our database for station/object WA9SDJ-13. If no packets are shown the sender has not sent any weather packets the latest 10 day(s).
| Time | Temp. | Humidity | Pressure | Rain* | Wind** | Luminosity | Snow |
|---|---|---|---|---|---|---|---|
| 1778276293 | 15° C | 86% | 1008.5 hPa | 1.27 mm | - | 49 W/m² | - |
| 1778276233 | 15° C | 86% | 1008.6 hPa | 1.27 mm | - | 55 W/m² | - |
| 1778276173 | 15° C | 86% | 1008.6 hPa | 1.27 mm | - | 58 W/m² | - |
| 1778276114 | 15° C | 86% | 1008.7 hPa | 1.27 mm | - | 60 W/m² | - |
| 1778276053 | 15° C | 86% | 1008.6 hPa | 1.27 mm | - | 62 W/m² | - |
| 1778275993 | 15° C | 86% | 1008.7 hPa | 1.27 mm | - | 60 W/m² | - |
| 1778275933 | 15° C | 86% | 1008.7 hPa | 1.27 mm | - | 56 W/m² | - |
| 1778275873 | 15° C | 86% | 1008.7 hPa | 1.27 mm | - | 53 W/m² | - |
| 1778275813 | 15° C | 86% | 1008.8 hPa | 1.27 mm | - | 51 W/m² | - |
| 1778275753 | 15° C | 86% | 1008.7 hPa | 1.27 mm | - | 53 W/m² | - |
| 1778275692 | 15° C | 86% | 1008.8 hPa | 1.27 mm | - | 63 W/m² | - |
| 1778275633 | 15° C | 86% | 1008.8 hPa | 1.27 mm | - | 69 W/m² | - |
| 1778275573 | 15° C | 86% | 1008.8 hPa | 1.27 mm | - | 69 W/m² | - |
| 1778275513 | 15.56° C | 85% | 1008.8 hPa | 1.27 mm | - | 65 W/m² | - |
| 1778275452 | 15.56° C | 85% | 1008.8 hPa | 1.27 mm | - | 62 W/m² | - |
| 1778275393 | 15.56° C | 85% | 1008.8 hPa | 1.27 mm | - | 63 W/m² | - |
| 1778275333 | 15.56° C | 85% | 1008.8 hPa | 1.27 mm | - | 70 W/m² | - |
| 1778275273 | 15.56° C | 85% | 1009 hPa | 1.27 mm | - | 63 W/m² | - |
| 1778275213 | 15.56° C | 85% | 1009 hPa | 1.27 mm | - | 58 W/m² | - |
| 1778275153 | 15.56° C | 85% | 1009 hPa | 1.27 mm | - | 62 W/m² | - |
| 1778275093 | 15.56° C | 85% | 1008.9 hPa | 1.27 mm | - | 63 W/m² | - |
| 1778275033 | 15.56° C | 85% | 1008.9 hPa | 1.27 mm | - | 63 W/m² | - |
| 1778274973 | 15.56° C | 85% | 1009 hPa | 1.27 mm | - | 72 W/m² | - |
| 1778274912 | 15.56° C | 85% | 1008.9 hPa | 1.27 mm | - | 77 W/m² | - |
| 1778274852 | 15.56° C | 85% | 1009 hPa | 1.27 mm | - | 79 W/m² | - |
* Rain latest hour (hover to see other rain measurements)
** Current wind speed in m/s (hover to see current wind gust speed)